Location: Caribou
(46.8667°N, 68.0167°W)
Time: 01:24:20
(UTC-04:00)

Daily predictions for brighter satellites

Satellite Brightness Start Highest point End
(mag) Time Altitude Azimuth Time Altitude Azimuth Time Altitude Azimuth
SL-16 R/B 4.4 01:23:13 25° NE 01:23:13 25° NE 01:26:54 10° N
USA 215 4.5 01:32:53 10° NE 01:37:18 36° NNE 01:37:18 36° NNE
Resurs 1-4 Rocket 4.3 01:57:10 10° NE 01:59:21 20° NE 01:59:21 20° NE
ADEOS Rocket 4.1 02:06:33 10° NNE 02:10:38 44° NNE 02:10:38 44° NNE
Cosmos 2227 Rocket 4.0 02:23:32 26° N 02:23:32 26° N 02:26:06 10° NNE
Cosmos 2263 Rocket 4.4 02:26:58 17° E 02:26:58 17° E 02:30:28 10° ENE
CZ-4C R/B 3.5 02:37:48 37° N 02:37:48 37° N 02:41:54 10° NE
ARIANE 5 R/B 4.3 02:31:28 10° NNE 02:34:17 29° NE 02:34:17 29° NE
CZ-2D R/B 3.5 02:39:00 10° NNE 02:42:03 34° NE 02:42:03 34° NE
Cosmos 2297 Rocket 3.8 03:05:07 25° NNW 03:05:07 25° NNW 03:08:20 10° N
Gbstr 26 Del rocket 4.3 03:04:46 81° SE 03:04:46 81° SE 03:12:31 10° ESE
SL-16 R/B 3.8 03:08:19 29° NNW 03:08:19 29° NNW 03:11:13 10° NNW
ADEOS II 3.9 03:16:39 10° NE 03:21:03 26° E 03:24:03 16° SE
USA 215 4.4 03:15:11 10° ENE 03:21:05 38° N 03:24:38 22° NW
Cosmos 1607 4.4 03:23:15 51° SE 03:23:55 53° ESE 03:30:06 10° NE
Cosmos 1655 Rocket 4.3 03:20:58 10° NNW 03:25:50 52° NW 03:25:50 52° NW
Cosmos 371 Rocket 4.3 03:33:11 10° NNW 03:37:54 45° ENE 03:42:33 10° SE
Cosmos 1140 Rocket 3.6 03:39:19 67° N 03:39:19 67° N 03:43:58 10° NNE
Resurs 1-4 Rocket 2.9 03:36:39 10° N 03:40:26 38° NNW 03:40:26 38° NNW
Cosmos 1741 Rocket 4.3 03:41:56 57° SE 03:42:31 61° ESE 03:47:43 10° NNE
Cosmos 2279 Rocket 4.1 03:50:36 53° WNW 03:50:36 53° WNW 03:56:29 10° N
Cosmos 1975 Rocket 3.3 03:51:59 67° E 03:52:01 67° E 03:56:23 10° NNE
SL-8 R/B 3.9 03:52:45 62° SE 03:52:45 62° SE 03:57:13 10° ENE
Cosmos 1455 Rocket 4.2 03:50:04 10° N 03:54:13 41° ENE 03:58:18 10° SSE
ADEOS 3.9 03:51:26 10° N 03:55:56 49° NW 03:55:56 49° NW
BREEZE-M DEB (TANK) 3.5 03:55:07 46° WNW 03:56:46 80° NNE 03:59:54 10° ESE
Cosmos 614 Rocket 4.0 03:59:42 59° NW 03:59:42 59° NW 04:04:37 10° NNE
Cosmos 1666 4.5 03:56:55 10° N 04:00:20 31° ENE 04:03:45 10° SE
Abrixas rocket 3.9 04:01:45 33° ENE 04:01:45 33° ENE 04:03:42 10° ENE
Cosmos 1850 Rocket 3.9 04:01:14 63° SSW 04:02:09 89° WNW 04:07:30 10° NNE
Cosmos 2227 Rocket 4.4 04:05:21 11° NW 04:06:15 12° NNW 04:08:18 10° N
Cosmos 2263 Rocket 2.1 04:08:42 53° SW 04:10:05 79° WNW 04:15:50 10° NNE
Meteor 1-4 Rocket 3.7 04:08:52 10° N 04:12:13 42° ENE 04:15:31 10° SSE
Cosmos 1975 2.8 04:08:51 10° N 04:12:43 76° NW 04:12:43 76° NW
ARIANE 5 R/B 3.6 04:10:55 10° N 04:14:37 28° NW 04:14:37 28° NW
PSLV R/B 4.4 04:11:57 10° NNE 04:15:43 51° E 04:17:13 31° SSE
Lacrosse 5 rocket 3.4 04:14:32 15° NNW 04:15:58 18° N 04:18:38 10° NE
Cosmos 1743 3.2 04:12:06 10° N 04:16:00 62° E 04:19:51 10° SSE
Meteor 1-18 Rocket 4.2 04:14:04 34° SSW 04:16:46 79° WNW 04:22:44 10° N
Okean 1 3.1 04:20:51 72° W 04:20:53 72° W 04:24:54 10° N
CZ-2D R/B 3.5 04:19:54 10° NNW 04:23:22 22° NW 04:23:22 22° NW
CZ-2D R/B 4.5 04:20:17 10° N 04:23:18 32° NW 04:23:18 32° NW
Cosmos 220 Rocket 4.0 04:24:40 56° W 04:24:55 57° WNW 04:29:14 10° NNE
CZ-4C R/B 4.1 04:22:59 15° NW 04:25:56 21° NNW 04:30:49 10° NNE
ATLAS 5 CENTAUR R/B 3.2 04:21:44 10° NNW 04:27:23 51° NE 04:33:36 10° ESE
ATLAS 3B R/B 3.2 04:21:56 17° SSW 04:27:44 61° ESE 04:34:42 10° NE
SL-24 DEB 4.5 04:28:22 10° N 04:33:01 49° W 04:34:11 40° WSW
ASTEX 1 3.5 04:29:05 10° N 04:33:52 52° WNW 04:35:32 36° SW
Atlas Centaur 2 4.0 04:33:33 16° SSW 04:34:12 16° S 04:37:36 10° SSE
Cosmos 2208 Rocket 4.5 04:34:53 10° NW 04:39:40 36° WSW 04:44:23 10° SSW
CZ-3 R/B 4.1 04:33:13 17° SW 04:44:45 28° S 04:51:41 10° SE
Meteor 2-11 Rocket 4.5 04:41:46 10° S 04:47:49 84° E 04:53:56 10° N
Okean O Rocket 1.6 04:44:38 10° NNE 04:49:01 86° ESE 04:53:21 10° SSW
ATLAS CENTAUR R/B 3.9 04:48:23 10° SSE 04:50:52 17° ESE 04:53:19 10° ENE
CZ-4B R/B 3.3 04:46:13 10° NNE 04:51:32 73° ESE 04:56:51 10° S
Cosmos 1814 Rocket 3.9 04:46:23 10° NNW 04:51:32 72° WSW 04:56:41 10° SSE
CZ-4B R/B 2.8 04:48:25 10° N 04:52:30 66° WNW 04:55:05 20° SSW
Meteor 1-13 Rocket 4.3 04:48:41 10° S 04:54:39 89° W 05:00:36 10° N
S3M 4.4 04:50:35 10° S 04:56:48 69° E 05:03:09 10° NNE
Cosmos 389 Rocket 4.2 04:56:20 10° N 04:59:34 36° ENE 05:02:49 10° SE
ADEOS II 2.4 04:55:58 10° N 05:00:59 46° WNW 05:05:00 16° SW
IRS-1C Rocket 4.2 04:57:24 10° NNE 05:02:44 82° ESE 05:08:00 10° SSW
USA 215 3.7 04:57:03 10° ESE 05:03:27 61° NNE 05:09:52 10° NW
Meteor 2-4 Rocket 3.8 04:59:01 10° S 05:04:38 83° E 05:10:27 10° NNE
COSMO-SKYMED 1 4.1 05:04:33 10° SE 05:08:36 40° ENE 05:12:41 10° N
Cosmos 1271 Rocket 3.5 05:04:39 10° N 05:08:37 58° ENE 05:12:34 10° SSE
TELKOM 3 2.8 05:09:50 40° W 05:10:30 74° NNW 05:12:37 10° ENE
Cosmos 1900 4.5 05:06:01 10° NW 05:11:04 54° WSW 05:16:00 10° SSE
CZ-4B R/B 4.1 05:08:01 10° NNE 05:11:57 72° ESE 05:16:02 10° S
Meteor 2-9 Rocket 4.1 05:08:43 10° NNW 05:14:07 67° W 05:19:37 10° S
PSLV R/B 3.9 05:11:09 10° N 05:15:06 40° WNW 05:18:48 11° SW
Meteor 1-19 Rocket 4.4 05:11:57 10° SSW 05:17:43 59° WNW 05:23:26 10° N
Cosmos 371 Rocket 4.3 05:14:09 10° NW 05:18:02 24° W 05:21:52 10° SSW
Intercosmos 25 Rocket 3.9 05:16:06 17° SW 05:18:03 28° WNW 05:20:53 10° NNW
NOSS 3-2 (A) 4.1 05:12:32 10° SSW 05:18:23 56° ESE 05:24:50 10° NE
CZ-2C R/B 3.7 05:14:10 10° S 05:18:53 69° WSW 05:23:39 10° NNW
Cosmos 841 Rocket 3.5 05:19:17 10° NNW 05:24:22 57° WSW 05:29:27 10° S
TSX-5 3.6 05:21:23 10° NNW 05:25:18 82° ENE 05:28:35 10° SSE
COSMOS 2406 3.3 05:22:38 10° NW 05:28:16 55° WSW 05:33:53 10° S
Cosmos 1455 Rocket 4.3 05:28:37 10° NW 05:31:44 19° W 05:34:50 10° SW
Cosmos 2278 Rocket 3.5 05:26:38 10° S 05:31:57 44° ESE 05:37:19 10° NE
MTI 3.8 05:29:30 10° S 05:32:42 57° W 05:35:57 10° NNW
CZ-4B DEB 4.4 05:28:28 10° N 05:33:43 49° WNW 05:38:57 10° SW
SL-8 R/B 3.8 05:30:44 13° W 05:35:02 74° N 05:39:51 10° E
Cosmos 1666 4.0 05:33:01 10° NW 05:35:47 20° W 05:38:33 10° SW
Cosmos 540 Rocket 3.5 05:30:43 10° NNW 05:35:53 87° WSW 05:41:02 10° SSE
Abrixas rocket 2.4 05:34:19 13° WNW 05:37:12 64° N 05:40:26 10° E
Cosmos 1486 Rocket 4.0 05:34:15 10° SSW 05:39:26 63° WNW 05:44:39 10° NNE
EO 1 Del DPAF 3.2 05:36:16 10° S 05:40:03 59° WSW 05:43:52 10° NNW
Cosmos 1833 Rocket 4.1 05:36:15 10° NNW 05:41:34 41° NE 05:46:50 10° SE
Cosmos 1515 3.7 05:38:01 10° S 05:41:50 90° SSW 05:45:43 10° N
Cosmos 1763 Rocket 4.2 05:37:39 10° NW 05:42:18 31° W 05:46:56 10° SSW
Lacrosse 4 Rocket 2.1 05:39:14 10° NNW 05:43:31 59° NE 05:47:40 10° SE
Cosmos 1844 Rocket 2.8 05:38:55 10° SW 05:44:32 64° WNW 05:50:13 10° NNE
USA 238 DEB 3.8 05:37:51 10° SW 05:44:45 65° NW 05:51:46 10° NE
USA 238 3.8 05:37:57 10° SW 05:44:52 65° NW 05:51:52 10° NE
Meteor 1-4 Rocket 4.3 05:45:25 10° WNW 05:46:56 12° W 05:48:28 10° WSW
Meteor 1-31 Rocket 3.2 05:44:57 10° N 05:48:38 40° WNW 05:52:14 10° SW
Cosmos 292 Rocket 4.3 05:47:56 10° NNW 05:52:47 66° ENE 05:57:34 10° SSE
Cosmos 2263 Rocket 3.8 05:51:09 10° W 05:54:59 18° NW 05:58:50 10° N
Okean-O 2.6 05:51:37 10° N 05:56:04 77° WNW 06:00:29 10° SSW
